Tracking 20040 objects as of 18-Nov-2019
Live streaming from Space Station
objects crossing your sky now

ARIANE 5 R/B

Track ARIANE 5 R/B now!


NORAD ID: 25990
Int'l Code: 1999-066B
Perigee: 4,088.8 km
Apogee: 108,562.0 km
Inclination: 61.0 °
Period: 2,603.9 minutes
Semi major axis: 62696 km
RCS: 6.3096 m2 (large)
Launch date: December 10, 1999
Source: France (FR)
Launch site: FRENCH GUIANA (FRGUI)

Note: This is a ROCKET BODY
aabbcc
Your satellite tracking list
Your tracking list is empty




NASA's NSSDC Master Catalog

Two Line Element Set (TLE):
1 25990U 99066B   19323.86767650 -.00000096 +00000-0 +00000-0 0  9994
2 25990 061.0202 044.7366 8331675 086.8984 359.5635 00.55301788012088
Source of the keplerian elements: AFSPC